Year,Month,Day,Hour,Minute,Value (Times are PST for temperature in C)
2019,03,20,00,00,5.60
2019,03,20,00,01,5.60
2019,03,20,00,02,5.60
2019,03,20,00,03,5.60
2019,03,20,00,04,5.70
2019,03,20,00,05,5.70
2019,03,20,00,06,5.70
2019,03,20,00,07,5.70
2019,03,20,00,08,5.80
2019,03,20,00,09,5.80
2019,03,20,00,10,5.80
2019,03,20,00,11,5.80
2019,03,20,00,12,5.80
2019,03,20,00,13,5.80
2019,03,20,00,14,5.80
2019,03,20,00,15,5.70
2019,03,20,00,16,5.70
2019,03,20,00,17,5.70
2019,03,20,00,18,5.70
2019,03,20,00,19,5.70
2019,03,20,00,20,5.70
2019,03,20,00,21,5.70
2019,03,20,00,22,5.70
2019,03,20,00,23,5.70
2019,03,20,00,24,5.60
2019,03,20,00,25,5.60
2019,03,20,00,26,5.60
2019,03,20,00,27,5.60
2019,03,20,00,28,5.60
2019,03,20,00,29,5.60
2019,03,20,00,30,5.50
2019,03,20,00,31,5.50
2019,03,20,00,32,5.50
2019,03,20,00,33,5.50
2019,03,20,00,34,5.40
2019,03,20,00,35,5.40
2019,03,20,00,36,5.40
2019,03,20,00,37,5.40
2019,03,20,00,38,5.40
2019,03,20,00,39,5.40
2019,03,20,00,40,5.30
2019,03,20,00,41,5.30
2019,03,20,00,42,5.30
2019,03,20,00,43,5.30
2019,03,20,00,44,5.30
2019,03,20,00,45,5.30
2019,03,20,00,46,5.30
2019,03,20,00,47,5.30
2019,03,20,00,48,5.20
2019,03,20,00,49,5.20
2019,03,20,00,50,5.20
2019,03,20,00,51,5.20
2019,03,20,00,52,5.10
2019,03,20,00,53,5.10
2019,03,20,00,54,5.10
2019,03,20,00,55,5.10
2019,03,20,00,56,5.10
2019,03,20,00,57,5.10
2019,03,20,00,58,5.10
2019,03,20,00,59,5.10
2019,03,20,01,00,5.10
2019,03,20,01,01,5.10
2019,03,20,01,02,5.10
2019,03,20,01,03,5.10
2019,03,20,01,04,5.10
2019,03,20,01,05,5.10
2019,03,20,01,06,5.10
2019,03,20,01,07,5.10
2019,03,20,01,08,5.10
2019,03,20,01,09,5.10
2019,03,20,01,10,5.10
2019,03,20,01,11,5.10
2019,03,20,01,12,5.10
2019,03,20,01,13,5.10
2019,03,20,01,14,5.10
2019,03,20,01,15,5.10
2019,03,20,01,16,5.10
2019,03,20,01,17,5.10
2019,03,20,01,18,5.10
2019,03,20,01,19,5.10
2019,03,20,01,20,5.10
2019,03,20,01,21,5.10
2019,03,20,01,22,5.10
2019,03,20,01,23,5.10
2019,03,20,01,24,5.10
2019,03,20,01,25,5.10
2019,03,20,01,26,5.10
2019,03,20,01,27,5.00
2019,03,20,01,28,5.00
2019,03,20,01,29,4.90
2019,03,20,01,30,4.90
2019,03,20,01,31,4.90
2019,03,20,01,32,4.80
2019,03,20,01,33,4.80
2019,03,20,01,34,4.80
2019,03,20,01,35,4.80
2019,03,20,01,36,4.70
2019,03,20,01,37,4.70
2019,03,20,01,38,4.70
2019,03,20,01,39,4.60
2019,03,20,01,40,4.60
2019,03,20,01,41,4.60
2019,03,20,01,42,4.60
2019,03,20,01,43,4.60
2019,03,20,01,44,4.60
2019,03,20,01,45,4.60
2019,03,20,01,46,4.60
2019,03,20,01,47,4.60
2019,03,20,01,48,4.60
2019,03,20,01,49,4.60
2019,03,20,01,50,4.60
2019,03,20,01,51,4.60
2019,03,20,01,52,4.70
2019,03,20,01,53,4.70
2019,03,20,01,54,4.70
2019,03,20,01,55,4.80
2019,03,20,01,56,4.80
2019,03,20,01,57,4.80
2019,03,20,01,58,4.80
2019,03,20,01,59,4.80
2019,03,20,02,00,4.70
2019,03,20,02,01,4.70
2019,03,20,02,02,4.70
2019,03,20,02,03,4.70
2019,03,20,02,04,4.60
2019,03,20,02,05,4.60
2019,03,20,02,06,4.60
2019,03,20,02,07,4.60
2019,03,20,02,08,4.60
2019,03,20,02,09,4.50
2019,03,20,02,10,4.50
2019,03,20,02,11,4.40
2019,03,20,02,12,4.40
2019,03,20,02,13,4.40
2019,03,20,02,14,4.30
2019,03,20,02,15,4.30
2019,03,20,02,16,4.30
2019,03,20,02,17,4.30
2019,03,20,02,18,4.30
2019,03,20,02,19,4.30
2019,03,20,02,20,4.30
2019,03,20,02,21,4.20
2019,03,20,02,22,4.20
2019,03,20,02,23,4.20
2019,03,20,02,24,4.10
2019,03,20,02,25,4.10
2019,03,20,02,26,4.10
2019,03,20,02,27,4.10
2019,03,20,02,28,4.10
2019,03,20,02,29,4.10
2019,03,20,02,30,4.10
2019,03,20,02,31,4.10
2019,03,20,02,32,4.10
2019,03,20,02,33,4.20
2019,03,20,02,34,4.20
2019,03,20,02,35,4.20
2019,03,20,02,36,4.20
2019,03,20,02,37,4.20
2019,03,20,02,38,4.20
2019,03,20,02,39,4.10
2019,03,20,02,40,4.10
2019,03,20,02,41,4.10
2019,03,20,02,42,4.10
2019,03,20,02,43,4.10
2019,03,20,02,44,4.10
2019,03,20,02,45,4.10
2019,03,20,02,46,4.10
2019,03,20,02,47,4.10
2019,03,20,02,48,4.00
2019,03,20,02,49,4.00
2019,03,20,02,50,4.00
2019,03,20,02,51,4.00
2019,03,20,02,52,3.90
2019,03,20,02,53,3.90
2019,03,20,02,54,3.90
2019,03,20,02,55,3.90
2019,03,20,02,56,3.90
2019,03,20,02,57,3.90
2019,03,20,02,58,3.90
2019,03,20,02,59,3.90
2019,03,20,03,00,3.90
2019,03,20,03,01,3.90
2019,03,20,03,02,3.90
2019,03,20,03,03,3.90
2019,03,20,03,04,3.90
2019,03,20,03,05,3.90
2019,03,20,03,06,3.80
2019,03,20,03,07,3.80
2019,03,20,03,08,3.80
2019,03,20,03,09,3.80
2019,03,20,03,10,3.90
2019,03,20,03,11,3.90
2019,03,20,03,12,3.90
2019,03,20,03,13,4.00
2019,03,20,03,14,4.00
2019,03,20,03,15,4.00
2019,03,20,03,16,4.00
2019,03,20,03,17,3.90
2019,03,20,03,18,3.90
2019,03,20,03,19,3.90
2019,03,20,03,20,3.90
2019,03,20,03,21,3.90
2019,03,20,03,22,3.80
2019,03,20,03,23,3.80
2019,03,20,03,24,3.80
2019,03,20,03,25,3.80
2019,03,20,03,26,3.80
2019,03,20,03,27,3.80
2019,03,20,03,28,3.80
2019,03,20,03,29,3.90
2019,03,20,03,30,3.90
2019,03,20,03,31,3.90
2019,03,20,03,32,3.90
2019,03,20,03,33,3.90
2019,03,20,03,34,3.90
2019,03,20,03,35,3.90
2019,03,20,03,36,3.90
2019,03,20,03,37,3.90
2019,03,20,03,38,3.90
2019,03,20,03,39,3.90
2019,03,20,03,40,4.00
2019,03,20,03,41,4.00
2019,03,20,03,42,4.10
2019,03,20,03,43,4.20
2019,03,20,03,44,4.20
2019,03,20,03,45,4.30
2019,03,20,03,46,4.40
2019,03,20,03,47,4.40
2019,03,20,03,48,4.50
2019,03,20,03,49,4.50
2019,03,20,03,50,4.50
2019,03,20,03,51,4.50
2019,03,20,03,52,4.50
2019,03,20,03,53,4.40
2019,03,20,03,54,4.40
2019,03,20,03,55,4.40
2019,03,20,03,56,4.30
2019,03,20,03,57,4.30
2019,03,20,03,58,4.20
2019,03,20,03,59,4.20
2019,03,20,04,00,4.20
2019,03,20,04,01,4.10
2019,03,20,04,02,4.10
2019,03,20,04,03,4.10
2019,03,20,04,04,4.00
2019,03,20,04,05,4.00
2019,03,20,04,06,3.90
2019,03,20,04,07,3.90
2019,03,20,04,08,3.90
2019,03,20,04,09,3.80
2019,03,20,04,10,3.80
2019,03,20,04,11,3.80
2019,03,20,04,12,3.70
2019,03,20,04,13,3.70
2019,03,20,04,14,3.70
2019,03,20,04,15,3.70
2019,03,20,04,16,3.70
2019,03,20,04,17,3.70
2019,03,20,04,18,3.70
2019,03,20,04,19,3.70
2019,03,20,04,20,3.70
2019,03,20,04,21,3.70
2019,03,20,04,22,3.70
2019,03,20,04,23,3.70
2019,03,20,04,24,3.70
2019,03,20,04,25,3.60
2019,03,20,04,26,3.60
2019,03,20,04,27,3.60
2019,03,20,04,28,3.50
2019,03,20,04,29,3.50
2019,03,20,04,30,3.50
2019,03,20,04,31,3.40
2019,03,20,04,32,3.40
2019,03,20,04,33,3.40
2019,03,20,04,34,3.30
2019,03,20,04,35,3.40
2019,03,20,04,36,3.40
2019,03,20,04,37,3.40
2019,03,20,04,38,3.30
2019,03,20,04,39,3.30
2019,03,20,04,40,3.30
2019,03,20,04,41,3.30
2019,03,20,04,42,3.30
2019,03,20,04,43,3.30
2019,03,20,04,44,3.30
2019,03,20,04,45,3.30
2019,03,20,04,46,3.30
2019,03,20,04,47,3.30
2019,03,20,04,48,3.30
2019,03,20,04,49,3.20
2019,03,20,04,50,3.20
2019,03,20,04,51,3.20
2019,03,20,04,52,3.20
2019,03,20,04,53,3.20
2019,03,20,04,54,3.20
2019,03,20,04,55,3.20
2019,03,20,04,56,3.30
2019,03,20,04,57,3.30
2019,03,20,04,58,3.30
2019,03,20,04,59,3.30
2019,03,20,05,00,3.30
2019,03,20,05,01,3.20
2019,03,20,05,02,3.20
2019,03,20,05,03,3.20
2019,03,20,05,04,3.20
2019,03,20,05,05,3.20
2019,03,20,05,06,3.20
2019,03,20,05,07,3.20
2019,03,20,05,08,3.20
2019,03,20,05,09,3.20
2019,03,20,05,10,3.20
2019,03,20,05,11,3.20
2019,03,20,05,12,3.20
2019,03,20,05,13,3.20
2019,03,20,05,14,3.20
2019,03,20,05,15,3.20
2019,03,20,05,16,3.20
2019,03,20,05,17,3.20
2019,03,20,05,18,3.30
2019,03,20,05,19,3.30
2019,03,20,05,20,3.30
2019,03,20,05,21,3.30
2019,03,20,05,22,3.30
2019,03,20,05,23,3.30
2019,03,20,05,24,3.30
2019,03,20,05,25,3.30
2019,03,20,05,26,3.30
2019,03,20,05,27,3.30
2019,03,20,05,28,3.30
2019,03,20,05,29,3.30
2019,03,20,05,30,3.30
2019,03,20,05,31,3.30
2019,03,20,05,32,3.30
2019,03,20,05,33,3.30
2019,03,20,05,34,3.30
2019,03,20,05,35,3.30
2019,03,20,05,36,3.30
2019,03,20,05,37,3.30
2019,03,20,05,38,3.30
2019,03,20,05,39,3.30
2019,03,20,05,40,3.30
2019,03,20,05,41,3.30
2019,03,20,05,42,3.30
2019,03,20,05,43,3.30
2019,03,20,05,44,3.30
2019,03,20,05,45,3.30
2019,03,20,05,46,3.30
2019,03,20,05,47,3.30
2019,03,20,05,48,3.30
2019,03,20,05,49,3.20
2019,03,20,05,50,3.20
2019,03,20,05,51,3.20
2019,03,20,05,52,3.20
2019,03,20,05,53,3.20
2019,03,20,05,54,3.20
2019,03,20,05,55,3.20
2019,03,20,05,56,3.20
2019,03,20,05,57,3.20
2019,03,20,05,58,3.20
2019,03,20,05,59,3.20
2019,03,20,06,00,3.20
2019,03,20,06,01,3.20
2019,03,20,06,02,3.20
2019,03,20,06,03,3.20
2019,03,20,06,04,3.10
2019,03,20,06,05,3.10
2019,03,20,06,06,3.10
2019,03,20,06,07,3.00
2019,03,20,06,08,3.00
2019,03,20,06,09,3.00
2019,03,20,06,10,3.00
2019,03,20,06,11,2.90
2019,03,20,06,12,2.90
2019,03,20,06,13,2.90
2019,03,20,06,14,2.90
2019,03,20,06,15,2.90
2019,03,20,06,16,2.90
2019,03,20,06,17,2.90
2019,03,20,06,18,2.90
2019,03,20,06,19,2.90
2019,03,20,06,20,2.90
2019,03,20,06,21,2.90
2019,03,20,06,22,2.90
2019,03,20,06,23,2.90
2019,03,20,06,24,2.80
2019,03,20,06,25,2.80
2019,03,20,06,26,2.80
2019,03,20,06,27,2.80
2019,03,20,06,28,2.80
2019,03,20,06,29,2.70
2019,03,20,06,30,2.70
2019,03,20,06,31,2.70
2019,03,20,06,32,2.70
2019,03,20,06,33,2.70
2019,03,20,06,34,2.60
2019,03,20,06,35,2.60
2019,03,20,06,36,2.60
2019,03,20,06,37,2.70
2019,03,20,06,38,2.70
2019,03,20,06,39,2.70
2019,03,20,06,40,2.70
2019,03,20,06,41,2.70
2019,03,20,06,42,2.70
2019,03,20,06,43,2.70
2019,03,20,06,44,2.80
2019,03,20,06,45,2.80
2019,03,20,06,46,2.80
2019,03,20,06,47,2.90
2019,03,20,06,48,2.90
2019,03,20,06,49,2.90
2019,03,20,06,50,3.00
2019,03,20,06,51,3.00
2019,03,20,06,52,3.10
2019,03,20,06,53,3.10
2019,03,20,06,54,3.10
2019,03,20,06,55,3.10
2019,03,20,06,56,3.20
2019,03,20,06,57,3.20
2019,03,20,06,58,3.30
2019,03,20,06,59,3.40
2019,03,20,07,00,3.40
2019,03,20,07,01,3.40
2019,03,20,07,02,3.40
2019,03,20,07,03,3.40
2019,03,20,07,04,3.40
2019,03,20,07,05,3.30
2019,03,20,07,06,3.30
2019,03,20,07,07,3.20
2019,03,20,07,08,3.10
2019,03,20,07,09,3.10
2019,03,20,07,10,3.00
2019,03,20,07,11,3.10
2019,03,20,07,12,3.10
2019,03,20,07,13,3.10
2019,03,20,07,14,3.10
2019,03,20,07,15,3.10
2019,03,20,07,16,3.10
2019,03,20,07,17,3.10
2019,03,20,07,18,3.10
2019,03,20,07,19,3.00
2019,03,20,07,20,3.00
2019,03,20,07,21,3.00
2019,03,20,07,22,3.00
2019,03,20,07,23,3.00
2019,03,20,07,24,3.00
2019,03,20,07,25,3.00
2019,03,20,07,26,3.00
2019,03,20,07,27,3.00
2019,03,20,07,28,2.90
2019,03,20,07,29,2.90
2019,03,20,07,30,2.90
2019,03,20,07,31,2.80
2019,03,20,07,32,2.80
2019,03,20,07,33,2.80
2019,03,20,07,34,2.70
2019,03,20,07,35,2.70
2019,03,20,07,36,2.70
2019,03,20,07,37,2.70
2019,03,20,07,38,2.70
2019,03,20,07,39,2.70
2019,03,20,07,40,2.70
2019,03,20,07,41,2.70
2019,03,20,07,42,2.70
2019,03,20,07,43,2.70
2019,03,20,07,44,2.70
2019,03,20,07,45,2.70
2019,03,20,07,46,2.80
2019,03,20,07,47,2.80
2019,03,20,07,48,2.80
2019,03,20,07,49,2.80
2019,03,20,07,50,2.90
2019,03,20,07,51,3.00
2019,03,20,07,52,3.00
2019,03,20,07,53,3.10
2019,03,20,07,54,3.20
2019,03,20,07,55,3.20
2019,03,20,07,56,3.20
2019,03,20,07,57,3.30
2019,03,20,07,58,3.30
2019,03,20,07,59,3.30
2019,03,20,08,00,3.30
2019,03,20,08,01,3.30
2019,03,20,08,02,3.40
2019,03,20,08,03,3.40
2019,03,20,08,04,3.40
2019,03,20,08,05,3.40
2019,03,20,08,06,3.40
2019,03,20,08,07,3.40
2019,03,20,08,08,3.50
2019,03,20,08,09,3.50
2019,03,20,08,10,3.60
2019,03,20,08,11,3.60
2019,03,20,08,12,3.60
2019,03,20,08,13,3.60
2019,03,20,08,14,3.70
2019,03,20,08,15,3.70
2019,03,20,08,16,3.80
2019,03,20,08,17,3.80
2019,03,20,08,18,3.80
2019,03,20,08,19,3.90
2019,03,20,08,20,3.90
2019,03,20,08,21,4.00
2019,03,20,08,22,4.10
2019,03,20,08,23,4.10
2019,03,20,08,24,4.20
2019,03,20,08,25,4.30
2019,03,20,08,26,4.30
2019,03,20,08,27,4.40
2019,03,20,08,28,4.40
2019,03,20,08,29,4.50
2019,03,20,08,30,4.60
2019,03,20,08,31,4.70
2019,03,20,08,32,4.80
2019,03,20,08,33,4.80
2019,03,20,08,34,4.90
2019,03,20,08,35,4.90
2019,03,20,08,36,5.00
2019,03,20,08,37,5.10
2019,03,20,08,38,5.10
2019,03,20,08,39,5.10
2019,03,20,08,40,5.20
2019,03,20,08,41,5.30
2019,03,20,08,42,5.30
2019,03,20,08,43,5.40
2019,03,20,08,44,5.50
2019,03,20,08,45,5.50
2019,03,20,08,46,5.60
2019,03,20,08,47,5.70
2019,03,20,08,48,5.80
2019,03,20,08,49,5.80
2019,03,20,08,50,5.90
2019,03,20,08,51,6.00
2019,03,20,08,52,6.10
2019,03,20,08,53,6.20
2019,03,20,08,54,6.30
2019,03,20,08,55,6.40
2019,03,20,08,56,6.50
2019,03,20,08,57,6.60
2019,03,20,08,58,6.80
2019,03,20,08,59,7.00
2019,03,20,09,00,7.20
2019,03,20,09,01,7.30
2019,03,20,09,02,7.50
2019,03,20,09,03,7.80
2019,03,20,09,04,7.90
2019,03,20,09,05,8.10
2019,03,20,09,06,8.30
2019,03,20,09,07,8.40
2019,03,20,09,08,8.50
2019,03,20,09,09,8.60
2019,03,20,09,10,8.60
2019,03,20,09,11,8.70
2019,03,20,09,12,8.70
2019,03,20,09,13,8.80
2019,03,20,09,14,8.80
2019,03,20,09,15,8.90
2019,03,20,09,16,8.90
2019,03,20,09,17,8.90
2019,03,20,09,18,9.00
2019,03,20,09,19,9.00
2019,03,20,09,20,9.00
2019,03,20,09,21,9.10
2019,03,20,09,22,9.10
2019,03,20,09,23,9.10
2019,03,20,09,24,9.10
2019,03,20,09,25,9.20
2019,03,20,09,26,9.20
2019,03,20,09,27,9.20
2019,03,20,09,28,9.20
2019,03,20,09,29,9.20
2019,03,20,09,30,9.20
2019,03,20,09,31,9.30
2019,03,20,09,32,9.30
2019,03,20,09,33,9.40
2019,03,20,09,34,9.40
2019,03,20,09,35,9.50
2019,03,20,09,36,9.50
2019,03,20,09,37,9.60
2019,03,20,09,38,9.70
2019,03,20,09,39,9.70
2019,03,20,09,40,9.80
2019,03,20,09,41,9.80
2019,03,20,09,42,9.80
2019,03,20,09,43,9.80
2019,03,20,09,44,9.80
2019,03,20,09,45,9.90
2019,03,20,09,46,10.00
2019,03,20,09,47,10.10
2019,03,20,09,48,10.10
2019,03,20,09,49,10.20
2019,03,20,09,50,10.20
2019,03,20,09,51,10.20
2019,03,20,09,52,10.30
2019,03,20,09,53,10.30
2019,03,20,09,54,10.30
2019,03,20,09,55,10.40
2019,03,20,09,56,10.40
2019,03,20,09,57,10.40
2019,03,20,09,58,10.40
2019,03,20,09,59,10.50
2019,03,20,10,00,10.50
2019,03,20,10,01,10.50
2019,03,20,10,02,10.50
2019,03,20,10,03,10.50
2019,03,20,10,04,10.50
2019,03,20,10,05,10.60
2019,03,20,10,06,10.60
2019,03,20,10,07,10.70
2019,03,20,10,08,10.70
2019,03,20,10,09,10.70
2019,03,20,10,10,10.70
2019,03,20,10,11,10.70
2019,03,20,10,12,10.70
2019,03,20,10,13,10.70
2019,03,20,10,14,10.70
2019,03,20,10,15,10.70
2019,03,20,10,16,10.70
2019,03,20,10,17,10.70
2019,03,20,10,18,10.80
2019,03,20,10,19,10.80
2019,03,20,10,20,10.90
2019,03,20,10,21,11.00
2019,03,20,10,22,11.10
2019,03,20,10,23,11.10
2019,03,20,10,24,11.20
2019,03,20,10,25,11.20
2019,03,20,10,26,11.30
2019,03,20,10,27,11.30
2019,03,20,10,28,11.30
2019,03,20,10,29,11.40
2019,03,20,10,30,11.40
2019,03,20,10,31,11.50
2019,03,20,10,32,11.60
2019,03,20,10,33,11.60
2019,03,20,10,34,11.70
2019,03,20,10,35,11.70
2019,03,20,10,36,11.70
2019,03,20,10,37,11.80
2019,03,20,10,38,11.90
2019,03,20,10,39,11.90
2019,03,20,10,40,11.90
2019,03,20,10,41,11.90
2019,03,20,10,42,11.80
2019,03,20,10,43,11.70
2019,03,20,10,44,11.70
2019,03,20,10,45,11.60
2019,03,20,10,46,11.60
2019,03,20,10,47,11.70
2019,03,20,10,48,11.70
2019,03,20,10,49,11.70
2019,03,20,10,50,11.70
2019,03,20,10,51,11.70
2019,03,20,10,52,11.70
2019,03,20,10,53,11.60
2019,03,20,10,54,11.60
2019,03,20,10,55,11.60
2019,03,20,10,56,11.60
2019,03,20,10,57,11.50
2019,03,20,10,58,11.40
2019,03,20,10,59,11.40
2019,03,20,11,00,11.30
2019,03,20,11,01,11.30
2019,03,20,11,02,11.30
2019,03,20,11,03,11.30
2019,03,20,11,04,11.30
2019,03,20,11,05,11.30
2019,03,20,11,06,11.40
2019,03,20,11,07,11.40
2019,03,20,11,08,11.50
2019,03,20,11,09,11.60
2019,03,20,11,10,11.70
2019,03,20,11,11,11.70
2019,03,20,11,12,11.80
2019,03,20,11,13,11.80
2019,03,20,11,14,11.80
2019,03,20,11,15,11.80
2019,03,20,11,16,11.80
2019,03,20,11,17,11.80
2019,03,20,11,18,11.80
2019,03,20,11,19,11.80
2019,03,20,11,20,11.90
2019,03,20,11,21,11.90
2019,03,20,11,22,12.00
2019,03,20,11,23,12.00
2019,03,20,11,24,12.00
2019,03,20,11,25,12.00
2019,03,20,11,26,12.10
2019,03,20,11,27,12.10
2019,03,20,11,28,12.20
2019,03,20,11,29,12.20
2019,03,20,11,30,12.30
2019,03,20,11,31,12.20
2019,03,20,11,32,12.20
2019,03,20,11,33,12.10
2019,03,20,11,34,12.10
2019,03,20,11,35,12.10
2019,03,20,11,36,12.10
2019,03,20,11,37,12.20
2019,03,20,11,38,12.20
2019,03,20,11,39,12.20
2019,03,20,11,40,12.20
2019,03,20,11,41,12.20
2019,03,20,11,42,12.20
2019,03,20,11,43,12.10
2019,03,20,11,44,12.10
2019,03,20,11,45,12.10
2019,03,20,11,46,12.20
2019,03,20,11,47,12.20
2019,03,20,11,48,12.20
2019,03,20,11,49,12.20
2019,03,20,11,50,12.20
2019,03,20,11,51,12.20
2019,03,20,11,52,12.30
2019,03,20,11,53,12.40
2019,03,20,11,54,12.60
2019,03,20,11,55,12.70
2019,03,20,11,56,12.80
2019,03,20,11,57,13.00
2019,03,20,11,58,13.00
2019,03,20,11,59,13.10
2019,03,20,12,00,13.10
2019,03,20,12,01,13.10
2019,03,20,12,02,13.10
2019,03,20,12,03,13.10
2019,03,20,12,04,13.10
2019,03,20,12,05,13.10
2019,03,20,12,06,13.10
2019,03,20,12,07,13.10
2019,03,20,12,08,13.10
2019,03,20,12,09,13.10
2019,03,20,12,10,13.10
2019,03,20,12,11,13.10
2019,03,20,12,12,13.10
2019,03,20,12,13,13.20
2019,03,20,12,14,13.20
2019,03,20,12,15,13.30
2019,03,20,12,16,13.40
2019,03,20,12,17,13.40
2019,03,20,12,18,13.50
2019,03,20,12,19,13.50
2019,03,20,12,20,13.60
2019,03,20,12,21,13.60
2019,03,20,12,22,13.70
2019,03,20,12,23,13.70
2019,03,20,12,24,13.80
2019,03,20,12,25,13.80
2019,03,20,12,26,13.80
2019,03,20,12,27,13.90
2019,03,20,12,28,14.00
2019,03,20,12,29,14.00
2019,03,20,12,30,14.10
2019,03,20,12,31,14.20
2019,03,20,12,32,14.40
2019,03,20,12,33,14.50
2019,03,20,12,34,14.60
2019,03,20,12,35,14.70
2019,03,20,12,36,14.80
2019,03,20,12,37,14.80
2019,03,20,12,38,14.80
2019,03,20,12,39,14.90
2019,03,20,12,40,14.90
2019,03,20,12,41,15.00
2019,03,20,12,42,15.00
2019,03,20,12,43,15.00
2019,03,20,12,44,15.00
2019,03,20,12,45,15.10
2019,03,20,12,46,15.20
2019,03,20,12,47,15.30
2019,03,20,12,48,15.30
2019,03,20,12,49,15.30
2019,03,20,12,50,15.40
2019,03,20,12,51,15.40
2019,03,20,12,52,15.50
2019,03,20,12,53,15.50
2019,03,20,12,54,15.60
2019,03,20,12,55,15.60
2019,03,20,12,56,15.60
2019,03,20,12,57,15.50
2019,03,20,12,58,15.40
2019,03,20,12,59,15.40
2019,03,20,13,00,15.40
2019,03,20,13,01,15.30
2019,03,20,13,02,15.20
2019,03,20,13,03,15.10
2019,03,20,13,04,15.10
2019,03,20,13,05,15.10
2019,03,20,13,06,15.20
2019,03,20,13,07,15.20
2019,03,20,13,08,15.10
2019,03,20,13,09,15.10
2019,03,20,13,10,15.10
2019,03,20,13,11,15.10
2019,03,20,13,12,15.20
2019,03,20,13,13,15.30
2019,03,20,13,14,15.40
2019,03,20,13,15,15.60
2019,03,20,13,16,15.80
2019,03,20,13,17,15.90
2019,03,20,13,18,15.90
2019,03,20,13,19,15.90
2019,03,20,13,20,15.90
2019,03,20,13,21,15.90
2019,03,20,13,22,15.80
2019,03,20,13,23,15.80
2019,03,20,13,24,15.80
2019,03,20,13,25,15.80
2019,03,20,13,26,15.70
2019,03,20,13,27,15.70
2019,03,20,13,28,15.70
2019,03,20,13,29,15.70
2019,03,20,13,30,15.60
2019,03,20,13,31,15.60
2019,03,20,13,32,15.60
2019,03,20,13,33,15.60
2019,03,20,13,34,15.60
2019,03,20,13,35,15.50
2019,03,20,13,36,15.50
2019,03,20,13,37,15.50
2019,03,20,13,38,15.50
2019,03,20,13,39,15.50
2019,03,20,13,40,15.50
2019,03,20,13,41,15.60
2019,03,20,13,42,15.70
2019,03,20,13,43,15.70
2019,03,20,13,44,15.80
2019,03,20,13,45,15.80
2019,03,20,13,46,15.80
2019,03,20,13,47,15.90
2019,03,20,13,48,15.90
2019,03,20,13,49,15.90
2019,03,20,13,50,16.00
2019,03,20,13,51,16.00
2019,03,20,13,52,16.10
2019,03,20,13,53,16.10
2019,03,20,13,54,16.10
2019,03,20,13,55,16.20
2019,03,20,13,56,16.20
2019,03,20,13,57,16.20
2019,03,20,13,58,16.20
2019,03,20,13,59,16.20
2019,03,20,14,00,16.20
2019,03,20,14,01,16.10
2019,03,20,14,02,16.00
2019,03,20,14,03,16.00
2019,03,20,14,04,16.00
2019,03,20,14,05,15.90
2019,03,20,14,06,15.90
2019,03,20,14,07,15.90
2019,03,20,14,08,15.90
2019,03,20,14,09,15.90
2019,03,20,14,10,15.90
2019,03,20,14,11,16.00
2019,03,20,14,12,16.00
2019,03,20,14,13,16.10
2019,03,20,14,14,16.10
2019,03,20,14,15,16.10
2019,03,20,14,16,16.10
2019,03,20,14,17,16.00
2019,03,20,14,18,16.00
2019,03,20,14,19,15.90
2019,03,20,14,20,16.00
2019,03,20,14,21,16.00
2019,03,20,14,22,16.00
2019,03,20,14,23,16.10
2019,03,20,14,24,16.20
2019,03,20,14,25,16.20
2019,03,20,14,26,16.40
2019,03,20,14,27,16.50
2019,03,20,14,28,16.60
2019,03,20,14,29,16.70
2019,03,20,14,30,16.80
2019,03,20,14,31,16.80
2019,03,20,14,32,16.80
2019,03,20,14,33,16.90
2019,03,20,14,34,16.90
2019,03,20,14,35,17.00
2019,03,20,14,36,17.00
2019,03,20,14,37,17.00
2019,03,20,14,38,17.00
2019,03,20,14,39,17.00
2019,03,20,14,40,17.10
2019,03,20,14,41,17.20
2019,03,20,14,42,17.20
2019,03,20,14,43,17.30
2019,03,20,14,44,17.30
2019,03,20,14,45,17.40
2019,03,20,14,46,17.40
2019,03,20,14,47,17.40
2019,03,20,14,48,17.40
2019,03,20,14,49,17.50
2019,03,20,14,50,17.60
2019,03,20,14,51,17.70
2019,03,20,14,52,17.80
2019,03,20,14,53,17.90
2019,03,20,14,54,17.90
2019,03,20,14,55,17.90
2019,03,20,14,56,17.90
2019,03,20,14,57,17.90
2019,03,20,14,58,17.90
2019,03,20,14,59,17.90
2019,03,20,15,00,17.90
2019,03,20,15,01,17.80
2019,03,20,15,02,17.70
2019,03,20,15,03,17.70
2019,03,20,15,04,17.60
2019,03,20,15,05,17.60
2019,03,20,15,06,17.60
2019,03,20,15,07,17.60
2019,03,20,15,08,17.60
2019,03,20,15,09,17.60
2019,03,20,15,10,17.60
2019,03,20,15,11,17.70
2019,03,20,15,12,17.70
2019,03,20,15,13,17.80
2019,03,20,15,14,17.90
2019,03,20,15,15,18.00
2019,03,20,15,16,18.00
2019,03,20,15,17,17.90
2019,03,20,15,18,17.90
2019,03,20,15,19,17.90
2019,03,20,15,20,17.90
2019,03,20,15,21,17.90
2019,03,20,15,22,17.90
2019,03,20,15,23,17.90
2019,03,20,15,24,17.80
2019,03,20,15,25,17.70
2019,03,20,15,26,17.70
2019,03,20,15,27,17.70
2019,03,20,15,28,17.70
2019,03,20,15,29,17.80
2019,03,20,15,30,17.80
2019,03,20,15,31,17.80
2019,03,20,15,32,17.80
2019,03,20,15,33,17.90
2019,03,20,15,34,18.00
2019,03,20,15,35,18.10
2019,03,20,15,36,18.30
2019,03,20,15,37,18.40
2019,03,20,15,38,18.50
2019,03,20,15,39,18.60
2019,03,20,15,40,18.60
2019,03,20,15,41,18.70
2019,03,20,15,42,18.70
2019,03,20,15,43,18.70
2019,03,20,15,44,18.70
2019,03,20,15,45,18.70
2019,03,20,15,46,18.70
2019,03,20,15,47,18.70
2019,03,20,15,48,18.70
2019,03,20,15,49,18.70
2019,03,20,15,50,18.70
2019,03,20,15,51,18.80
2019,03,20,15,52,18.80
2019,03,20,15,53,18.90
2019,03,20,15,54,18.90
2019,03,20,15,55,18.90
2019,03,20,15,56,18.90
2019,03,20,15,57,18.80
2019,03,20,15,58,18.80
2019,03,20,15,59,18.70
2019,03,20,16,00,18.70
2019,03,20,16,01,18.60
2019,03,20,16,02,18.50
2019,03,20,16,03,18.50
2019,03,20,16,04,18.40
2019,03,20,16,05,18.40
2019,03,20,16,06,18.40
2019,03,20,16,07,18.40
2019,03,20,16,08,18.40
2019,03,20,16,09,18.40
2019,03,20,16,10,18.50
2019,03,20,16,11,18.50
2019,03,20,16,12,18.60
2019,03,20,16,13,18.60
2019,03,20,16,14,18.60
2019,03,20,16,15,18.70
2019,03,20,16,16,18.70
2019,03,20,16,17,18.70
2019,03,20,16,18,18.80
2019,03,20,16,19,18.80
2019,03,20,16,20,18.90
2019,03,20,16,21,18.90
2019,03,20,16,22,19.00
2019,03,20,16,23,19.00
2019,03,20,16,24,19.00
2019,03,20,16,25,19.00
2019,03,20,16,26,18.90
2019,03,20,16,27,18.80
2019,03,20,16,28,18.60
2019,03,20,16,29,18.50
2019,03,20,16,30,18.40
2019,03,20,16,31,18.30
2019,03,20,16,32,18.20
2019,03,20,16,33,18.20
2019,03,20,16,34,18.20
2019,03,20,16,35,18.10
2019,03,20,16,36,18.10
2019,03,20,16,37,18.00
2019,03,20,16,38,17.90
2019,03,20,16,39,17.90
2019,03,20,16,40,17.90
2019,03,20,16,41,17.90
2019,03,20,16,42,17.90
2019,03,20,16,43,17.90
2019,03,20,16,44,17.80
2019,03,20,16,45,17.70
2019,03,20,16,46,17.50
2019,03,20,16,47,17.30
2019,03,20,16,48,17.10
2019,03,20,16,49,16.90
2019,03,20,16,50,16.70
2019,03,20,16,51,16.60
2019,03,20,16,52,16.50
2019,03,20,16,53,16.40
2019,03,20,16,54,16.40
2019,03,20,16,55,16.40
2019,03,20,16,56,16.40
2019,03,20,16,57,16.40
2019,03,20,16,58,16.40
2019,03,20,16,59,16.50
2019,03,20,17,00,16.50
2019,03,20,17,01,16.60
2019,03,20,17,02,16.60
2019,03,20,17,03,16.70
2019,03,20,17,04,16.80
2019,03,20,17,05,16.80
2019,03,20,17,06,16.90
2019,03,20,17,07,17.00
2019,03,20,17,08,17.00
2019,03,20,17,09,17.10
2019,03,20,17,10,17.20
2019,03,20,17,11,17.30
2019,03,20,17,12,17.40
2019,03,20,17,13,17.50
2019,03,20,17,14,17.70
2019,03,20,17,15,17.80
2019,03,20,17,16,17.90
2019,03,20,17,17,18.10
2019,03,20,17,18,18.30
2019,03,20,17,19,18.50
2019,03,20,17,20,18.60
2019,03,20,17,21,18.80
2019,03,20,17,22,19.00
2019,03,20,17,23,19.20
2019,03,20,17,24,19.40
2019,03,20,17,25,19.60
2019,03,20,17,26,19.70
2019,03,20,17,27,19.90
2019,03,20,17,28,20.00
2019,03,20,17,29,20.10
2019,03,20,17,30,20.30
2019,03,20,17,31,20.40
2019,03,20,17,32,20.50
2019,03,20,17,33,20.60
2019,03,20,17,34,20.60
2019,03,20,17,35,20.60
2019,03,20,17,36,20.60
2019,03,20,17,37,20.70
2019,03,20,17,38,20.70
2019,03,20,17,39,20.70
2019,03,20,17,40,20.80
2019,03,20,17,41,20.80
2019,03,20,17,42,20.90
2019,03,20,17,43,20.90
2019,03,20,17,44,21.00